Terminal Aerodrome Forecast
Issued by NWS Flagstaff, AZ

Home | Current Version | Previous Version | Text Only | Print | Product List | Glossary On
Versions: 1 2 3 4 5 6 7 8 9 10 11 12 13 14 15
000
FTUS45 KFGZ 051137
TAFINW
TAF
KINW 051137Z 0512/0612 12006KT P6SM BKN110
     FM051800 24011KT P6SM SCT080 BKN110
     FM060400 26009KT P6SM SCT080 BKN120=

USA.gov is the U.S. government's official web portal to all federal, state and local government web resources and services.